DW4070 Weather Reports


time (UTC)temp
C
wind
direction
speed
KPH
gust
KPH
rain 1hr
cm
rain 24hr
cm
rain mn
cm
humidity
%
barometer
mb
20260509150053 15 286 0.0 1.6 0.00 0.03 0.03 78 1014.0
20260509144551 14 285 0.0 3.2 0.00 0.03 0.03 77 1014.2
20260509143057 13 286 0.0 4.8 0.00 0.03 0.03 81 1014.1
20260509141547 13 286 0.0 3.2 0.00 0.03 0.03 84 1014.3
20260509140041 12 286 1.6 6.4 0.00 0.03 0.03 84 1014.1
20260509134540 12 286 0.0 6.4 0.00 0.03 0.03 87 1014.0
20260509133051 11 286 0.0 3.2 0.00 0.03 0.03 90 1014.4
20260509131533 11 286 0.0 1.6 0.03 0.03 0.03 91 1014.4
20260509130031 11 286 0.0 0.0 0.03 0.03 0.03 92 1014.4
20260509124529 10 286 0.0 0.0 0.03 0.03 0.03 93 1014.6
20260509123032 10 286 0.0 1.6 0.03 0.03 0.03 93 1014.7
20260509121530 10 323 0.0 0.0 0.00 0.00 0.00 93 1015.0
20260509120025 10 320 0.0 0.0 0.00 0.00 0.00 93 1015.1
20260509114528 10 321 0.0 0.0 0.00 0.00 0.00 93 1014.9
20260509113022 10 315 0.0 0.0 0.00 0.00 0.00 94 1015.0
20260509111520 9 317 0.0 0.0 0.00 0.00 0.00 94 1014.8
20260509110018 9 287 0.0 0.0 0.00 0.00 0.00 94 1014.9
20260509104518 9 286 0.0 0.0 0.00 0.00 0.00 94 1014.7
20260509103016 9 166 0.0 0.0 0.00 0.00 0.00 94 1014.4
20260509101526 9 166 0.0 0.0 0.00 0.00 0.00 94 1014.3
20260509100015 9 166 0.0 0.0 0.00 0.00 0.00 94 1014.4
20260509094515 8 166 0.0 0.0 0.00 0.00 0.00 94 1014.4
20260509093012 8 166 0.0 0.0 0.00 0.00 0.00 93 1014.3
20260509091511 8 166 0.0 0.0 0.00 0.00 0.00 93 1014.4
20260509090012 8 166 0.0 0.0 0.00 0.00 0.00 93 1014.5
20260509084510 8 166 0.0 0.0 0.00 0.00 0.00 93 1014.5
20260509083009 8 166 0.0 0.0 0.00 0.00 0.00 93 1014.5
20260509081518 8 166 0.0 0.0 0.00 0.00 0.00 93 1014.6
20260509080008 8 166 0.0 0.0 0.00 0.03 0.00 93 1014.6
20260509074507 8 166 0.0 0.0 0.00 0.03 0.00 93 1014.5
20260509073015 8 166 0.0 0.0 0.00 0.03 0.00 92 1014.4
20260509071505 8 166 0.0 0.0 0.00 0.03 0.00 92 1014.4
20260509070009 8 166 0.0 0.0 0.00 0.03 0.00 92 1014.4
20260509064503 8 166 0.0 0.0 0.00 0.03 0.00 92 1014.5
20260509063112 8 166 0.0 0.0 0.00 0.03 0.00 91 1014.5
20260509061618 8 166 0.0 0.0 0.00 0.03 0.00 91 1014.7
20260509060112 8 166 0.0 0.0 0.00 0.03 0.00 90 1015.0
20260509054557 8 166 0.0 0.0 0.00 0.03 0.00 90 1014.9
20260509053056 8 166 0.0 0.0 0.00 0.03 0.00 90 1015.0
20260509051559 8 166 0.0 0.0 0.00 0.03 0.00 89 1015.0
20260509050053 8 166 0.0 0.0 0.00 0.03 0.00 88 1014.9
20260509044551 8 166 0.0 0.0 0.00 0.03 0.00 87 1014.9
20260509043051 8 166 0.0 0.0 0.00 0.03 0.00 86 1015.0
20260509041546 8 166 0.0 0.0 0.00 0.03 0.00 85 1015.0
20260509040044 8 166 0.0 0.0 0.00 0.03 0.00 85 1015.2
20260509034543 9 166 0.0 0.0 0.00 0.03 0.03 84 1015.2
20260509033042 9 166 0.0 0.0 0.00 0.03 0.03 84 1015.1
20260509031542 9 166 0.0 0.0 0.00 0.03 0.03 83 1015.2
20260509030047 9 166 0.0 0.0 0.00 0.03 0.03 82 1015.1
20260509024540 9 166 0.0 0.0 0.00 0.03 0.03 82 1015.0
20260509023038 9 166 0.0 0.0 0.00 0.03 0.03 81 1014.8
20260509021538 9 166 0.0 0.0 0.00 0.03 0.03 80 1014.9
20260509020048 9 166 0.0 0.0 0.00 0.03 0.03 81 1014.6
20260509014544 9 166 0.0 0.0 0.00 0.03 0.03 79 1014.4
20260509013038 9 166 0.0 0.0 0.00 0.03 0.03 78 1014.2
20260509011533 9 166 0.0 0.0 0.00 0.03 0.03 77 1014.1
20260509010032 9 166 0.0 0.0 0.00 0.03 0.03 74 1014.1
20260509004532 10 166 0.0 0.0 0.00 0.03 0.03 73 1013.8
20260509003039 11 166 0.0 0.0 0.00 0.03 0.03 69 1013.6
20260509001531 11 166 0.0 0.0 0.00 0.03 0.03 66 1013.6
20260509000030 12 166 0.0 0.0 0.00 0.03 0.03 64 1013.4
20260508234531 13 166 0.0 0.0 0.00 0.03 0.03 59 1013.1
20260508233029 13 164 0.0 0.0 0.00 0.03 0.03 60 1013.2
20260508231530 13 167 0.0 1.6 0.00 0.03 0.03 61 1012.9
20260508230028 13 167 0.0 3.2 0.00 0.03 0.03 60 1012.9
20260508224532 13 194 0.0 3.2 0.00 0.03 0.03 60 1012.8
20260508223028 13 173 0.0 6.4 0.00 0.03 0.03 58 1012.7
20260508221527 13 157 0.0 6.4 0.00 0.03 0.03 57 1012.6
20260508220025 14 155 0.0 4.8 0.00 0.03 0.03 54 1012.6
20260508214525 14 283 1.6 6.4 0.00 0.03 0.03 54 1012.8
20260508213026 14 243 1.6 8.0 0.00 0.03 0.03 52 1013.0
20260508211522 14 81 0.0 6.4 0.00 0.03 0.03 51 1013.1
20260508210022 14 284 1.6 11.3 0.00 0.03 0.03 52 1013.1
20260508204621 14 273 0.0 19.3 0.00 0.03 0.03 51 1012.7
20260508203020 14 78 0.0 9.7 0.00 0.03 0.03 53 1012.8
20260508201522 14 22 3.2 8.0 0.00 0.03 0.03 53 1012.9
20260508200023 13 150 4.8 12.9 0.00 0.03 0.03 51 1013.0
20260508194518 13 179 1.6 8.0 0.00 0.03 0.03 60 1013.4
20260508193117 13 51 1.6 17.7 0.00 0.03 0.03 53 1013.4
20260508191524 15 19 1.6 11.3 0.00 0.03 0.03 48 1013.3
20260508190024 15 28 3.2 9.7 0.00 0.03 0.03 47 1013.0
20260508184516 15 49 3.2 8.0 0.00 0.03 0.03 50 1013.0
20260508183015 14 167 1.6 6.4 0.00 0.03 0.03 48 1013.0
20260508181517 15 271 3.2 11.3 0.00 0.03 0.03 45 1012.9
20260508180014 15 285 0.0 6.4 0.00 0.03 0.03 52 1012.7
20260508174513 15 264 1.6 12.9 0.00 0.03 0.03 48 1012.7
20260508173013 15 229 4.8 12.9 0.00 0.03 0.03 45 1012.9
20260508171519 15 192 0.0 4.8 0.00 0.03 0.03 46 1012.7
20260508170012 15 261 0.0 8.0 0.00 0.03 0.03 46 1012.7
20260508164512 16 31 0.0 12.9 0.00 0.03 0.03 44 1012.9
20260508163014 16 217 3.2 16.1 0.00 0.03 0.03 42 1013.1
20260508161507 16 141 1.6 6.4 0.00 0.03 0.03 42 1013.1
20260508160005 15 263 0.0 11.3 0.00 0.03 0.03 44 1013.4
20260508154505 15 99 3.2 12.9 0.00 0.03 0.03 43 1013.5
20260508153004 15 277 1.6 9.7 0.00 0.03 0.03 41 1013.4
20260508151501 15 265 0.0 4.8 0.00 0.03 0.03 47 1013.5